Flag Weather past 2 weeks in Sankt Ingbert, Saarland, Germany

Now
44 °F

Overcast.


Feels Like: 40 °F
Forecast: 37 / 43 °F
Wind: 7 mph from Northeast

Location: Saarbruecken / Ensheim

Current Time: Nov 25, 2014 at 3:07:55 AM

Latest Report: Nov 25, 2014 at 2:00 AM


Visibility: 13 mi

Pressure: 30.27 "Hg

Humidity: 86%

Dew point: 40 °F

Location of Sankt IngbertLocation

Historic Weather in Sankt Ingbert — Graph

°F

Sankt Ingbert temperature yesterday

Maximum temperature yesterday: 48 °F (at 11:00 AM)
Minimum temperature yesterday: 42 °F (at 7:00 AM)
Average temperature yesterday: 46 °F

Past Weeks' High & Low Weather Summary

 TemperatureHumidityPressure
High55 °F (Nov 22, 2:00 PM)100% (Nov 10, 8:00 AM)30.31 "Hg (Nov 10, 8:00 AM)
Low38 °F (Nov 21, 8:00 AM)79% (Nov 17, 1:00 PM)29.57 "Hg (Nov 16, 3:00 PM)
Average45 °F95%29.93 "Hg
* Reported Nov 10 2:00 AM — Nov 25 2:00 AM, Sankt Ingbert, Weather by CustomWeather, © 2014

Note: Actual official high and low records may vary slightly from our data, if they occured in-between our weather recording intervals... More about our weather records

Advertising

Sankt Ingbert weather history for previous 24 hours

 ConditionsComfort  
Time TempWeatherWind HumidityBarometerVisibility
2:00 AM
Nov 25
44 °FOvercast.7 mph86%30.27 "Hg12 mi
1:00 AM45 °FOvercast.7 mph89%30.27 "Hg12 mi
12:00 AM45 °FOvercast.9 mph88%30.29 "Hg12 mi
11:00 PM
Nov 24
46 °FOvercast.9 mph89%30.28 "Hg12 mi
10:00 PM46 °FOvercast.8 mph90%30.28 "Hg12 mi
9:00 PM47 °FLow clouds.6 mph91%30.28 "Hg12 mi
8:00 PM47 °FLow clouds.6 mph94%30.28 "Hg12 mi
7:00 PM47 °FLow clouds.6 mph95%30.28 "Hg11 mi
6:00 PM47 °FLow clouds.5 mph96%30.27 "Hg9 mi
5:00 PM47 °FLow clouds.5 mph97%30.27 "Hg5 mi
4:00 PM47 °FDrizzle. Low clouds.3 mph98%30.27 "Hg4 mi
3:00 PM47 °FDrizzle. Low clouds.5 mph97%30.27 "Hg3 mi
2:00 PM48 °FDrizzle. Low clouds.6 mph93%30.26 "Hg6 mi
1:00 PM48 °FOvercast.6 mph90%30.25 "Hg12 mi
12:00 PM48 °FLow clouds.5 mph92%30.25 "Hg9 mi
11:00 AM48 °FLow clouds.6 mph94%30.24 "Hg7 mi
10:00 AM46 °FLow clouds.3 mph96%30.23 "Hg7 mi
9:00 AM45 °FOvercast.1 mph97%30.20 "Hg7 mi
8:00 AM44 °FOvercast.1 mph99%30.19 "Hg7 mi
7:00 AM42 °FPassing clouds.1 mph99%30.16 "Hg9 mi
6:00 AM45 °FPassing clouds.2 mph98%30.14 "Hg11 mi
5:00 AM45 °FPassing clouds.1 mph96%30.12 "Hg12 mi
4:00 AM45 °FPassing clouds.1 mph94%30.10 "Hg16 mi
3:00 AM44 °FPassing clouds.1 mph95%30.11 "Hg16 mi
Weather by CustomWeather, © 2014

See weather overviewHow to use our weather pages